{"data":{"norad_id":62834,"intl_designator":"2025-019F","name":"STARLINK-11520 [DTC]","alt_names":[],"object_type":"PAYLOAD","status":"ACTIVE","operator":null,"country":"US","launch_date":"2025-01-27","launch_site_code":"AFETR","launch_vehicle":null,"mission":null,"orbit_class":"UNKNOWN","rcs_meters":null,"size_class":null,"mass_kg":null,"dimensions":null,"purposes":["comms"],"wikipedia_slug":null,"has_3d_model":false,"image_url":null,"decayed_at":null,"tle_current":{"epoch":"2026-09-21T03:32:14.496000Z","epoch_age_seconds":112236,"freshness":"FRESH","line1":"1 62834U 25019F   26264.14739000  .00139166  00000+0  10683-2 0  9999","line2":"2 62834  43.0004 207.6052 0001625 251.7596 108.3095 15.70877906 94635","mean_motion":15.70877906,"eccentricity":0.0001625,"inclination_deg":43.0004,"raan_deg":207.6052,"arg_perigee_deg":251.7596,"mean_anomaly_deg":108.3095,"bstar":0.0010683,"rev_number":9463,"period_min":91.668486424049,"perigee_km":355.29236120026,"apogee_km":357.48108140968,"semimajor_km":6734.523721305,"source":"CELESTRAK","updated_at":"2026-09-22T09:00:49.672003Z"}}}